Find Local Weather

World > North America > United States > North Dakota

Burlington, North Dakota Regional Weather

Lat: 48.28N, Lon: 101.43W
Wx Zone: NDZ011
Feedback

Burlington, ND Regional Weather

Expires:201905230700;;312724
ASUS43 KBIS 230610
RWRND 

NORTH DAKOTA REGIONAL WEATHER ROUNDUP
NATIONAL WEATHER SERVICE BISMARCK ND
100 AM CDT THU MAY 23 2019

NOTE: "FAIR" INDICATES FEW OR NO CLOUDS BELOW 12,000 FEET WITH NO
SIGNIFICANT WEATHER AND/OR OBSTRUCTIONS TO VISIBILITY.



NDZ001>003-009>011-017-230700-
NORTHWEST NORTH DAKOTA
  
CITY           SKY/WX    TMP DP  RH WIND       PRES   REMARKS
WILLISTON      PTCLDY    37  34  89 CALM      30.03R                  
6HR MIN TEMP:  37; 6HR MAX TEMP:  62;                                

MINOT          PTCLDY    43  40  89 NW10      29.95R                  
MINOT AFB      CLEAR     44  40  86 N10       29.95R                  
$$
 

SKY/WX - Weather  TMP - Temperature  DP - Dew Point  RH - Relative Humidity
WIND - Wind Direction/Speed PRES - Barometric Pressure VSB - Visibility
WCI - Wind Chill Index E13G22 Wind - East Wind 13 mph/Gusts of 22 mph